Regional Weather Roundup
Issued by NWS

Home | Current Version | Previous Version | Text Only | Print | Product List | Glossary Off
Versions: 1 2 3 4 5 6 7 8 9 10 11 12 13 14 15 16 17 18 19 20 21 22 23 24 25 26 27 28 29 30 31 32 33 34 35 36 37 38 39 40 41 42 43 44 45 46 47 48 49 50

000
ASUS43 KBIS 062010
RWRND

NORTH DAKOTA REGIONAL WEATHER ROUNDUP
NATIONAL WEATHER SERVICE BISMARCK ND
300 PM CDT FRI MAY 06 2016

NOTE: "FAIR" INDICATES FEW OR NO CLOUDS BELOW 12,000 FEET WITH NO
SIGNIFICANT WEATHER AND/OR OBSTRUCTIONS TO VISIBILITY.


NDZ001>003-009>011-017-062100-
NORTHWEST NORTH DAKOTA

CITY           SKY/WX    TMP DP  RH WIND       PRES   REMARKS
WILLISTON      SUNNY     70  34  26 N20G29    30.10F
MINOT          CLOUDY    73  44  35 N15G25    30.03S
MINOT AFB      CLOUDY    69  43  38 N20G28    30.02S
$$

NDZ018>021-031>035-040>046-062100-
SOUTHWEST NORTH DAKOTA

CITY           SKY/WX    TMP DP  RH WIND       PRES   REMARKS
BISMARCK       CLOUDY    77  48  35 N22       29.97R
DICKINSON      MOSUNNY   68  45  43 N20G28    30.05R
GARRISON         N/A     65  47  52 N12G24    30.04R
HETTINGER ARPT LGT RAIN  73  44  35 N22G32    30.03R
$$

NDZ004>008-012>016-024-026-027-054-062100-
NORTHEAST NORTH DAKOTA

CITY           SKY/WX    TMP DP  RH WIND       PRES   REMARKS
GRAND FORKS    MOSUNNY   72  42  34 N33G39    29.89R
GRND FRKS AFB  SUNNY     71  41  34 N21G33    29.90R
DEVILS LAKE    SUNNY     68  42  38 NE24G30   29.97R
$$

NDZ022-023-025-028>030-036>039-047>053-062100-
SOUTHEAST NORTH DAKOTA

CITY           SKY/WX    TMP DP  RH WIND       PRES   REMARKS
FARGO          CLOUDY    74  43  32 N20G28    29.83R
JAMESTOWN      SUNNY     75  44  33 N29G36    29.90R
$$





USA.gov is the U.S. government's official web portal to all federal, state and local government web resources and services.